User: anonymous   Login
Location: Arrodets-la-Barthe
(43.0306°N, 0.2829°E)
Time: 10:45:46
(UTC+00:00)
Language:

DUCHIFAT 1 - Orbit

View from above orbital plane
View from above orbital plane
View from above satellite
View from above satellite

Ground track
Ground track

The orbit data is extracted from the following two-line orbital elements,

1 40021U 14033M   24111.90148462  .00021866  00000-0  15277-2 0  9998
2 40021  98.0871  92.8857 0011291 298.2094  61.7990 15.05295333535505
Epoch (UTC): 20 April 2024 21:38:08
Eccentricity: 0.0011291
inclination: 98.0871°
perigee height: 543 km
apogee height: 558 km
right ascension of ascending node: 92.8857°
argument of perigee: 298.2094°
revolutions per day: 15.05295333
mean anomaly at epoch: 61.7990°
orbit number at epoch: 53550

The dashed part of the orbit path shows where the satellite is in the earth's shadow,  

DLR